DW2728 Weather Reports


Display with metric or nautical units.
time (UTC)temp
F
wind
direction
speed
MPH
gust
MPH
rain 1hr
in
rain 24hr
in
rain mn
in
humidity
%
barometer
mb
20260510225803 67 162 1.0 8.0 0.00 0.10 0.10 43 1019.2
20260510224804 68 140 3.0 6.0 0.00 0.10 0.10 43 1019.2
20260510223803 68 354 2.0 5.0 0.00 0.10 0.10 40 1019.2
20260510222804 67 214 1.0 5.0 0.00 0.10 0.10 43 1019.2
20260510221804 68 212 3.0 5.0 0.00 0.10 0.10 40 1019.3
20260510220803 69 270 1.0 4.0 0.00 0.10 0.10 41 1019.2
20260510215804 69 20 1.0 5.0 0.00 0.10 0.10 40 1019.4
20260510214804 69 62 2.0 6.0 0.00 0.10 0.10 41 1019.4
20260510213825 68 13 4.0 7.0 0.00 0.10 0.10 42 1019.4
20260510212803 68 66 4.0 5.0 0.00 0.10 0.10 41 1019.3
20260510211804 67 51 4.0 9.0 0.00 0.10 0.10 46 1019.4
20260510210803 67 21 5.0 11.0 0.00 0.10 0.10 40 1019.5
20260510205803 67 58 8.0 13.0 0.00 0.10 0.10 44 1019.7
20260510204804 66 156 4.0 7.0 0.00 0.10 0.10 43 1019.8
20260510203803 66 112 3.0 8.0 0.00 0.10 0.10 42 1019.8
20260510202804 66 93 5.0 9.0 0.00 0.10 0.10 45 1019.8
20260510201825 65 196 4.0 9.0 0.00 0.10 0.10 44 1019.9
20260510200803 65 185 4.0 9.0 0.00 0.10 0.10 47 1019.9
20260510195803 64 187 3.0 8.0 0.00 0.10 0.10 47 1019.9
20260510194803 63 93 4.0 14.0 0.00 0.10 0.10 45 1019.9
20260510193803 64 184 3.0 11.0 0.00 0.10 0.10 51 1020.0
20260510192804 64 98 5.0 9.0 0.00 0.10 0.10 50 1020.0
20260510191824 63 134 4.0 14.0 0.00 0.10 0.10 50 1020.3
20260510190804 62 115 4.0 7.0 0.00 0.10 0.10 48 1020.3
20260510185804 61 14 3.0 7.0 0.00 0.10 0.10 53 1020.3
20260510184803 60 104 5.0 11.0 0.00 0.10 0.10 53 1020.3
20260510183804 60 137 4.0 7.0 0.00 0.10 0.10 58 1020.3
20260510182803 59 75 2.0 9.0 0.00 0.10 0.10 60 1020.5
20260510181803 59 90 6.0 10.0 0.00 0.10 0.10 59 1020.3
20260510180825 58 85 4.0 9.0 0.00 0.10 0.10 59 1020.4
20260510175804 58 79 3.0 9.0 0.00 0.10 0.10 58 1020.6
20260510174803 58 53 3.0 7.0 0.00 0.10 0.10 57 1020.8
20260510173804 58 79 3.0 9.0 0.00 0.10 0.10 60 1020.9
20260510172803 57 341 4.0 7.0 0.00 0.10 0.10 63 1020.8
20260510171825 56 15 4.0 8.0 0.00 0.10 0.10 65 1020.8
20260510170803 56 4 5.0 9.0 0.00 0.10 0.10 66 1021.0
20260510165804 55 358 5.0 10.0 0.00 0.10 0.10 70 1020.8
20260510164803 55 345 5.0 10.0 0.00 0.10 0.10 74 1020.8
20260510163804 54 4 7.0 12.0 0.00 0.10 0.10 73 1020.6
20260510162803 54 327 4.0 11.0 0.00 0.10 0.10 75 1020.5
20260510161804 53 349 5.0 9.0 0.00 0.10 0.10 76 1020.5
20260510160804 52 346 2.0 6.0 0.00 0.10 0.10 77 1020.4
20260510155803 52 308 3.0 6.0 0.00 0.10 0.10 79 1020.3
20260510154804 52 321 2.0 8.0 0.00 0.10 0.10 81 1020.1
20260510153803 52 333 4.0 8.0 0.00 0.10 0.10 84 1019.8
20260510152825 51 301 4.0 8.0 0.00 0.10 0.10 86 1019.8
20260510151803 51 308 3.0 7.0 0.00 0.10 0.10 86 1019.6
20260510150803 50 320 2.0 6.0 0.00 0.10 0.10 85 1019.3
20260510145804 50 350 4.0 10.0 0.00 0.10 0.10 85 1019.4
20260510144804 50 14 7.0 10.0 0.00 0.10 0.10 85 1019.3
20260510143803 49 359 4.0 7.0 0.00 0.10 0.10 86 1019.3
20260510142803 49 11 3.0 6.0 0.00 0.10 0.10 86 1019.1
20260510141803 48 35 3.0 6.0 0.00 0.10 0.10 87 1018.8
20260510140804 48 89 3.0 8.0 0.00 0.10 0.10 88 1018.9
20260510135803 48 64 3.0 6.0 0.01 0.10 0.10 89 1018.7
20260510134803 47 57 3.0 5.0 0.01 0.10 0.10 89 1019.0
20260510133824 47 70 3.0 8.0 0.01 0.10 0.10 89 1019.0
20260510132804 47 91 6.0 11.0 0.01 0.10 0.10 89 1018.9
20260510131803 48 91 9.0 16.0 0.01 0.10 0.10 89 1018.3
20260510130825 48 82 10.0 14.0 0.01 0.10 0.10 88 1018.0
20260510125825 48 66 9.0 16.0 0.07 0.09 0.09 88 1018.4
20260510124803 48 75 9.0 14.0 0.07 0.09 0.09 88 1018.4
20260510123825 49 28 5.0 11.0 0.06 0.08 0.08 88 1019.0
20260510122803 50 355 5.0 7.0 0.04 0.06 0.06 88 1019.1
20260510121803 50 317 2.0 5.0 0.03 0.05 0.05 88 1019.1
20260510120803 50 293 2.0 5.0 0.01 0.03 0.03 86 1019.2
20260510115804 50 284 2.0 5.0 0.01 0.01 0.01 85 1018.9
20260510114803 50 292 3.0 5.0 0.00 0.00 0.00 83 1018.4
20260510113804 50 309 2.0 8.0 0.00 0.00 0.00 82 1017.5
20260510112803 51 350 5.0 11.0 0.00 0.00 0.00 82 1016.8
20260510111803 51 16 8.0 12.0 0.00 0.00 0.00 82 1015.9
20260510110803 51 15 8.0 13.0 0.00 0.00 0.00 82 1015.3
20260510104804 51 17 11.0 17.0 0.00 0.00 0.00 83 1015.0
20260510103803 51 11 11.0 17.0 0.00 0.00 0.00 84 1015.0
20260510102804 51 3 10.0 15.0 0.00 0.00 0.00 84 1015.1
20260510101824 50 11 11.0 15.0 0.00 0.00 0.00 84 1015.1
20260510100803 51 5 9.0 14.0 0.00 0.00 0.00 83 1015.0
20260510095803 51 22 8.0 12.0 0.00 0.00 0.00 82 1014.7
20260510094803 51 27 8.0 13.0 0.00 0.00 0.00 81 1014.5
20260510093803 51 25 7.0 13.0 0.00 0.00 0.00 79 1014.6
20260510092803 51 41 8.0 12.0 0.00 0.00 0.00 79 1014.4
20260510091803 52 53 8.0 13.0 0.00 0.00 0.00 80 1014.0
20260510090803 52 39 7.0 16.0 0.00 0.00 0.00 81 1013.6
20260510085803 52 113 13.0 19.0 0.00 0.00 0.00 82 1012.2
20260510084803 53 81 9.0 14.0 0.00 0.00 0.00 81 1013.2
20260510083803 53 60 7.0 10.0 0.00 0.00 0.00 79 1013.9
20260510082826 53 19 5.0 10.0 0.00 0.00 0.00 78 1014.4
20260510081803 54 3 7.0 13.0 0.00 0.00 0.00 76 1014.6
20260510080803 54 4 7.0 12.0 0.00 0.00 0.00 74 1014.5
20260510075803 54 25 9.0 17.0 0.00 0.00 0.00 74 1014.2
20260510074804 54 86 13.0 19.0 0.00 0.00 0.00 74 1013.7
20260510073803 54 73 13.0 24.0 0.00 0.00 0.00 74 1013.6
20260510072803 54 79 17.0 25.0 0.00 0.00 0.00 74 1013.6
20260510071803 54 62 12.0 27.0 0.00 0.00 0.00 74 1013.9
20260510070804 54 56 18.0 28.0 0.00 0.00 0.00 73 1013.6
20260510065803 55 51 20.0 29.0 0.00 0.00 0.00 72 1013.5
20260510064804 56 53 19.0 29.0 0.00 0.00 0.00 70 1013.4
20260510063824 57 41 21.0 32.0 0.00 0.00 0.00 65 1013.3
20260510062804 58 47 18.0 30.0 0.00 0.00 0.00 62 1013.3
20260510061803 58 34 17.0 25.0 0.00 0.00 0.00 62 1013.6
20260510060824 58 37 14.0 23.0 0.00 0.00 0.00 61 1013.6
20260510055803 58 30 18.0 23.0 0.00 0.00 0.00 61 1013.8
20260510054803 58 26 14.0 20.0 0.00 0.00 0.00 60 1013.7
20260510053804 59 32 14.0 20.0 0.00 0.00 0.00 60 1013.5
20260510052803 59 28 14.0 23.0 0.00 0.00 0.00 59 1013.4
20260510051824 59 22 16.0 25.0 0.00 0.00 0.00 59 1013.4
20260510050803 59 14 16.0 20.0 0.00 0.00 0.00 61 1013.2
20260510045802 58 9 14.0 20.0 0.00 0.00 0.00 65 1013.1
20260510044803 58 39 11.0 18.0 0.00 0.00 0.00 62 1011.8
20260510043803 59 53 11.0 18.0 0.00 0.00 0.00 61 1010.8
20260510042803 60 54 11.0 19.0 0.00 0.00 0.00 59 1010.3
20260510041803 60 59 11.0 20.0 0.00 0.00 0.00 57 1009.7
20260510040803 61 70 14.0 21.0 0.00 0.00 0.00 56 1009.4
20260510035803 61 64 13.0 22.0 0.00 0.00 0.00 55 1008.8
20260510034803 62 79 14.0 25.0 0.00 0.00 0.00 54 1008.5
20260510033803 62 85 18.0 24.0 0.00 0.00 0.00 54 1007.9
20260510032824 62 86 15.0 21.0 0.00 0.00 0.00 54 1008.0
20260510031803 62 83 14.0 25.0 0.00 0.00 0.00 53 1007.9
20260510030803 63 76 15.0 22.0 0.00 0.00 0.00 53 1007.8
20260510025803 63 64 14.0 23.0 0.00 0.00 0.00 54 1007.3
20260510024803 63 58 14.0 22.0 0.00 0.00 0.00 54 1007.3
20260510023824 63 53 13.0 20.0 0.00 0.00 0.00 54 1007.2
20260510022803 63 58 13.0 21.0 0.00 0.00 0.00 53 1006.9
20260510021803 64 66 14.0 20.0 0.00 0.00 0.00 52 1006.5
20260510020825 65 73 12.0 22.0 0.00 0.00 0.00 51 1006.1
20260510015803 65 63 13.0 21.0 0.00 0.00 0.00 51 1006.2
20260510014803 66 65 13.0 25.0 0.00 0.00 0.00 50 1006.1
20260510013803 67 56 14.0 27.0 0.00 0.00 0.00 49 1006.1
20260510012803 67 54 16.0 27.0 0.00 0.00 0.00 48 1005.8
20260510011803 68 56 18.0 28.0 0.00 0.00 0.00 48 1005.3
20260510010803 69 55 20.0 30.0 0.00 0.00 0.00 47 1005.0
20260510003803 73 50 18.0 30.0 0.00 0.00 0.00 43 1004.0
20260510002803 73 42 19.0 35.0 0.00 0.00 0.00 42 1003.6
20260510001803 74 50 21.0 32.0 0.00 0.00 0.00 42 1003.4
20260510000803 75 37 19.0 31.0 0.00 0.00 0.00 41 1003.1
20260509235824 77 26 18.0 30.0 0.00 0.00 0.00 38 1003.4
20260509234803 80 19 22.0 33.0 0.00 0.00 0.00 34 1002.9
20260509233803 83 333 7.0 12.0 0.00 0.00 0.00 27 1002.3
20260509232803 83 321 6.0 13.0 0.00 0.00 0.00 25 1002.4
20260509231803 84 309 5.0 16.0 0.00 0.00 0.00 23 1002.4